Reflectivity
-20 -20 -20 -20 -20 -20 -20 -20 -20 -20 -20 -20 -20 -20 -20 -20 -20 -20 -20 -20 -20 -20 -20 -20 -20 -20 -20 -20 -20 -20 -20 -20 -20 -20 -20 -20 -20 -20 -20 -20 -20 -20 -20
-20 -20 -20 -20 -20 -20 -20 -20 -20 -20 -20 -20 -20 -20 -20 -20 -20 -20 -20 -20 -20 -20 -20 -20 -20 -20 -20 -20 -20 -20 -20 -20 -20 -20 -20 -20 -20 -20 -20 -20 -20 -20 -20
-20 -20 -20 -20 -20 -20 -20 -20 -20 -20 -20 -20 -20 -20 -20 -20 -20 -20 -20 -20 -20 -20 -20 -20 -20 -20 -20 -20 -20 -20 -20 -20 -20 -20 -20 -20 -19 -20 -20 -20 -20 -20 -20
-20 -20 -20 -20 -20 -20 -20 -20 -20 -20 -20 -20 -20 -20 -20 -20 -20 -20 -20 -20 -20 -20 -20 -20 -20 -20 -20 -20 -20 -20 -20 -20 -20 -20 -20 -20 -19 -1 -20 -20 -20 -20 -20
-20 -20 -20 -20 -20 -20 -20 -20 -20 -20 -20 -20 -20 -20 -20 -20 -20 -20 -20 -20 -20 -20 -20 -20 -20 -20 -20 -20 -20 -20 -20 -20 -20 -20 -20 -20 -20 -20 -20 -17 -20 -20 -20
-20 -20 -20 -20 -20 -20 -20 -20 -20 -20 -20 -20 -20 -20 -20 -20 -20 -20 -20 -20 -20 -20 -20 -20 -20 -20 -20 -20 -20 -20 -20 -20 -20 -20 -20 -20 -20 -20 -20 -20 -17 -20 -20
-20 -20 -20 -20 -20 -20 -20 -20 -20 -20 -20 -20 -20 -20 -20 -20 -20 -20 -20 -20 -20 -20 -20 -20 -20 -20 -20 -20 -20 -20 -20 -20 -20 -20 -20 -20 -20 -20 -20 -20 -20 -20 -20
-20 -20 -20 -20 -20 -20 -20 -20 -20 -20 -20 -20 -20 -20 -20 -20 -20 -20 -20 -20 -20 -20 -20 -20 -20 -20 -20 -20 -20 -20 -20 -20 -20 -20 -20 -20 -20 -20 -20 -20 -20 -20 -20
-20 -20 -20 -20 -20 -20 -20 -20 -20 -20 -20 -20 -20 -20 -20 -20 -20 -20 -20 -20 -20 -20 -20 -20 -20 -20 -20 -20 -20 -20 -20 -20 -20 -20 -20 -20 -20 -20 -20 -20 -20 -20 -20
-20 -20 -20 -20 -20 -20 -20 -20 -20 -20 -20 -20 -20 -20 -20 -20 -20 -20 -20 -20 -20 -20 -20 -20 -20 -20 -20 -20 -20 -20 -20 -20 -20 -20 -20 -20 -20 -20 -20 -20 -20 -20 -20
-20 -20 -20 -20 -20 -20 -20 -20 -20 -20 -20 -20 -20 -20 -20 -20 -20 -20 -20 -20 -20 -20 -20 -20 -20 -20 -20 -20 -20 -20 -20 -20 -20 -20 -20 -20 -20 -20 -20 -20 -20 -20 -20
-20 -20 -20 -20 -20 -20 -20 -20 -20 -20 -20 -20 -20 -20 -20 -20 -20 -20 -20 -20 -20 -20 -20 -20 -20 -20 -20 -20 -20 -20 -20 -20 -20 -20 -20 -20 -20 -20 -20 -20 -20 -20 -20
-20 -20 -20 -20 -20 -20 -20 -20 -20 -20 -20 -20 -20 -20 -20 -20 -20 -20 -20 -20 -20 -20 -20 -20 -20 -20 -20 -20 -20 -20 -20 -20 -20 -20 -20 -20 -20 -20 -20 -20 -20 -20 -20
-20 -20 -20 -20 -20 -20 -20 -20 -20 -20 -20 -20 -20 -20 -20 -20 -20 -20 -20 -20 -20 -20 -20 -20 -20 -20 -20 -20 -20 -20 -20 -20 -20 -20 -20 -20 -20 -20 -20 -20 -20 -20 -20
-20 -20 -20 -20 -20 -20 -20 -20 -20 -20 -20 -20 -20 -20 -20 -20 -20 -20 -20 -20 -20 -20 -20 -20 -20 -20 -20 -20 -20 -20 -20 -20 -20 -20 -20 -20 -20 -20 -20 -20 -20 -20 -20
-20 -20 -20 -20 -20 -20 -20 -20 -20 -20 -20 -20 -20 -20 -20 -20 -20 -20 -20 -20 -20 -20 -20 -20 -20 -20 -20 -20 -20 -20 -20 -20 -20 -20 -20 -20 -20 -20 -20 -20 -20 -20 -20
-20 -20 -20 -20 -20 -20 -20 -20 -20 -20 -20 -20 -20 -20 -20 -20 -20 -20 -20 -20 -20 -20 -20 -20 -20 -20 -20 -20 -20 -1 -19 -4 -8 -20 -20 -20 -20 -20 -20 -20 -20 -20 -20
-20 -20 -20 -20 -20 -20 -20 -20 -20 -20 -20 -20 -20 -20 -20 -20 -20 -20 -20 -20 -20 -20 -20 -20 -20 -20 -20 -20 -20 -16 -5 -15 7 -19 -20 -20 -20 -20 -20 -20 -20 -20 -20
-20 -20 -20 -20 -20 -20 -20 -20 -20 -20 -20 -20 -20 -20 -20 -20 -20 -20 -20 -20 -20 -20 -20 -20 -20 -20 -20 -20 -20 -20 -20 -7 -4 8 -20 -20 -20 -20 -20 -20 -20 -20 -20
-20 -20 -20 -20 -20 -20 -20 -20 -20 -20 -20 -20 -20 -20 -20 -20 -20 -20 -20 -20 -20 -20 -20 -20 -20 -20 -20 -20 -20 -9 -14 -18 -2 16 -18 -9 -20 -20 -20 -20 -20 -20 -20
-20 -20 -20 -20 -20 -20 -20 -20 -20 -20 -20 -20 -20 -20 -20 -20 -20 -20 -20 -20 -20 -20 -20 -20 -20 -20 -20 -20 -20 8 -10 -2 14 -2 1 -2 -20 -20 -20 -20 -20 -20 -19
-20 -20 -20 -20 -20 -20 -20 -20 -20 -20 -20 -20 -20 -20 -20 -20 -20 -20 -20 -20 -20 -20 -20 -20 -20 -20 -20 -20 -4 6 6 20 25 11 6 -20 -20 -20 -20 -20 -20 -11 4
-20 -20 -20 -20 -20 -20 -20 -20 -20 -20 -20 -20 -20 -20 -20 -20 -20 -20 -20 -20 -20 -20 -20 -20 -20 -20 -20 -20 8 -7 9 4 1 1 -4 -20 -20 -20 -20 -20 -19 -19 -20
-20 -20 -20 -20 -20 -20 -20 -20 -20 -20 -20 -20 -20 -20 -20 -20 -20 -20 -20 -20 -20 -20 -20 -20 -20 -20 -20 -20 -20 -18 -5 -16 -19 -20 -18 -20 -20 -20 -20 -19 -20 -20 -20
-20 -20 -20 -20 -20 -20 -20 -20 -20 -20 -20 -20 -20 -20 -20 -20 -20 -20 -20 -20 -20 -20 -20 -20 -20 -20 -20 -17 -13 -18 -17 -19 -20 -20 -20 -20 -20 -20 -20 -20 -20 -20 -20
-20 -20 -20 -20 -20 -20 -20 -20 -20 -20 -20 -20 -20 -20 -20 -20 -20 -20 -20 -20 -20 -20 -20 -20 -20 -20 -20 2 1 5 -9 -19 -20 -20 -20 -20 -20 -20 -20 -20 -20 -20 -20
Wind_Speed
6 4 7 8 8 6 5 4 3 2 1 1 2 2 1 2 2 2 3 4 4 5 5 4 5 5 5 4 6 3 4 3 6 4 4 4 3 4 6 5 5 9 10
4 7 7 5 5 5 5 5 3 2 1 1 2 2 2 1 2 2 2 4 4 4 4 4 4 5 4 5 5 4 3 2 4 3 3 4 5 7 4 3 7 7 7
5 6 7 6 5 5 6 5 4 4 2 3 1 2 1 1 1 0 1 1 3 2 3 4 4 4 3 3 4 4 5 3 3 4 2 3 3 7 3 5 5 8 5
3 6 6 5 7 7 5 5 5 5 5 5 3 3 3 3 3 3 2 2 3 3 3 1 1 2 2 4 3 3 2 2 1 2 2 2 1 3 6 3 4 7 5
5 5 7 7 7 6 7 6 5 5 6 5 5 4 4 3 2 2 3 2 3 4 3 1 1 2 1 2 4 5 5 3 1 0 2 2 1 3 2 4 5 4 1
3 4 5 5 3 3 5 6 7 7 7 6 7 7 7 5 3 3 3 4 3 3 4 3 1 2 2 2 2 2 3 3 2 1 1 1 1 1 1 3 4 6 3
3 4 5 5 6 8 8 7 8 8 7 7 7 7 7 7 7 6 4 4 3 2 4 4 3 3 3 3 2 2 3 2 2 2 2 1 2 2 2 2 3 3 4
5 4 6 7 8 8 8 8 9 10 8 8 9 7 7 5 5 6 5 5 4 4 4 4 4 4 4 3 3 2 3 2 2 3 2 2 2 2 2 2 1 3 2
4 5 6 5 6 8 9 9 9 10 8 9 7 8 7 7 6 7 6 4 5 4 6 6 5 5 5 5 5 3 3 2 2 3 2 1 2 2 2 2 2 2 3
6 6 6 7 6 8 8 7 7 10 10 8 7 7 8 8 7 6 8 7 6 6 6 7 6 6 6 5 4 3 3 3 2 3 2 2 2 2 2 1 1 2 3
4 5 5 7 7 8 8 8 6 7 7 7 7 7 7 7 7 8 9 9 7 7 7 7 6 6 6 6 5 5 5 6 5 3 3 3 3 3 3 2 1 2 3
4 5 6 7 8 9 9 9 7 6 6 7 6 7 7 7 8 9 9 8 10 7 8 7 7 6 6 6 6 6 5 5 5 5 4 4 2 3 1 1 2 2 3
6 7 8 8 8 8 8 9 9 8 7 5 6 7 7 7 8 9 9 9 9 8 7 7 8 8 7 7 7 7 7 7 7 7 6 6 4 3 2 2 3 2 2
7 6 7 7 7 7 8 8 9 8 7 6 6 7 7 7 8 8 8 9 9 10 9 10 10 9 8 7 7 7 6 6 6 6 6 6 6 6 5 4 4 3 2
7 7 7 7 7 8 7 7 8 8 7 7 6 7 7 7 7 7 8 8 9 11 11 10 10 9 8 7 8 7 7 7 6 6 6 7 8 11 8 4 5 4 3
6 7 7 8 8 8 8 9 8 8 7 8 8 7 7 7 8 8 8 7 9 10 9 11 11 10 9 16 18 12 7 6 6 6 6 5 7 8 12 12 12 7 4
6 7 7 7 7 8 9 8 9 8 8 7 9 7 7 8 8 8 7 8 8 8 10 11 10 12 11 18 19 18 7 7 6 6 6 5 5 7 5 9 12 9 11
6 7 6 7 7 7 7 7 7 7 7 8 7 7 7 9 9 8 9 10 6 9 9 10 11 11 10 19 20 18 8 6 7 7 7 6 7 7 6 6 6 6 5
5 5 6 5 7 8 8 7 9 7 7 9 9 9 8 10 9 9 10 9 6 7 8 7 11 12 11 19 19 15 6 6 8 7 7 7 7 12 14 5 6 5 5
4 6 7 5 7 9 8 7 10 8 10 9 11 10 8 8 10 11 11 8 7 10 7 9 9 15 11 17 20 15 4 7 7 8 8 16 12 16 16 6 6 6 6
7 8 7 7 9 9 7 11 11 12 11 11 12 12 10 10 11 11 9 9 9 7 7 9 7 10 10 10 19 18 7 6 7 8 6 6 17 17 16 15 6 7 6
6 6 6 7 10 8 6 10 12 14 11 12 12 13 13 10 11 10 11 8 8 8 8 6 5 5 6 15 16 17 17 14 9 8 6 6 15 16 15 11 11 15 13
6 6 6 8 10 12 7 10 15 13 11 11 12 13 13 12 11 11 12 9 6 6 7 6 6 5 5 7 18 17 18 21 15 7 9 13 15 15 12 15 13 12 3
7 7 8 11 12 12 11 11 14 14 14 15 14 13 12 14 11 7 7 8 7 7 6 6 7 5 6 7 6 7 9 21 13 13 10 11 12 11 9 9 7 3 3
8 7 8 10 14 12 11 12 14 14 15 15 15 13 10 10 12 11 9 9 10 10 8 9 8 7 8 10 13 11 8 6 9 6 3 4 4 5 4 4 4 4 4
9 8 9 11 14 14 14 16 14 13 14 14 12 12 13 11 11 12 13 18 19 23 22 21 13 8 17 16 19 19 19 16 16 8 6 7 6 7 6 6 5 4 6
Wind_Direction
258 165 142 129 124 133 156 174 172 230 37 348 344 10 37 91 82 106 93 51 43 31 32 13 8 5 12 358 9 351 352 342 343 327 318 306 316 25 0 13 32 23 22
69 120 121 125 152 171 201 191 189 187 204 183 243 201 213 199 178 141 102 71 66 45 37 22 6 8 3 4 5 18 348 330 11 343 287 347 326 14 337 33 34 27 23
118 127 153 165 179 205 200 205 186 188 207 212 290 292 303 359 56 34 100 80 110 95 63 22 11 358 9 0 352 1 20 352 340 356 17 349 337 336 316 7 35 20 34
67 177 178 197 208 226 213 194 189 200 216 206 220 231 207 207 217 196 200 227 194 167 147 113 318 333 356 11 339 357 336 18 348 327 58 281 308 306 312 339 28 350 28
74 140 191 214 219 212 198 204 212 224 220 205 211 221 230 225 217 199 213 245 243 208 195 180 347 337 325 337 350 348 344 332 319 4 330 299 305 110 286 297 329 328 61
144 150 195 190 223 209 214 215 220 233 227 217 223 221 225 240 234 233 233 242 235 237 215 209 225 297 292 297 293 295 298 299 311 277 213 182 205 288 264 297 318 308 283
208 245 250 257 257 250 236 227 223 238 230 224 228 228 229 230 234 234 230 236 242 242 232 213 217 232 240 262 274 292 275 266 269 274 258 228 231 205 228 249 288 296 297
19 345 297 278 274 269 254 230 223 233 216 216 222 220 228 227 234 230 226 230 225 233 230 226 231 253 260 261 257 252 252 230 284 277 264 266 269 230 227 241 280 307 289
358 305 298 305 287 282 268 239 232 235 221 219 214 218 218 221 228 232 230 227 229 233 230 226 226 234 240 240 235 248 274 271 294 289 294 296 291 296 265 244 224 214 304
313 317 332 323 312 299 286 284 246 234 234 218 215 221 220 216 218 217 225 222 228 224 225 215 224 234 240 242 236 250 261 247 260 240 256 271 246 285 264 236 247 202 209
321 346 347 340 323 316 320 292 283 258 244 225 226 227 229 221 221 225 227 221 216 216 220 217 219 227 232 238 232 235 240 238 240 255 237 269 286 304 316 313 302 257 200
19 26 9 347 339 335 340 327 303 285 260 242 233 234 235 226 228 232 229 217 224 214 214 208 215 220 228 230 229 234 246 230 244 248 243 251 248 274 273 305 310 258 269
19 23 7 348 343 343 342 350 340 315 283 255 242 251 249 240 239 236 231 220 220 219 215 206 211 212 217 224 224 224 229 226 224 222 216 229 237 249 238 281 288 293 320
41 4 354 343 340 342 341 342 343 341 324 303 281 274 269 257 254 248 239 228 219 221 214 212 214 209 210 215 218 224 231 234 232 229 217 220 220 224 226 248 257 263 299
11 357 349 336 333 339 333 333 331 333 331 327 317 291 285 276 268 262 250 239 226 229 222 215 214 210 207 213 209 215 221 229 240 239 230 221 226 216 215 224 233 235 232
350 345 334 330 330 326 328 328 324 324 329 323 310 307 304 294 281 270 259 244 237 231 218 220 213 209 216 216 220 219 215 215 229 239 237 241 234 236 258 248 266 239 225
351 336 326 320 318 317 323 326 325 320 327 319 315 306 299 291 286 280 273 263 252 240 225 222 210 215 215 219 223 231 208 205 220 228 228 225 232 247 227 249 259 266 279
343 333 330 326 317 315 314 311 313 315 311 307 299 298 299 297 296 292 280 275 255 242 237 229 222 219 220 218 223 229 214 203 213 222 220 220 235 232 229 232 231 243 254
326 306 305 301 306 311 302 305 307 297 299 297 296 296 290 293 291 286 284 278 261 249 234 221 220 217 225 222 222 223 193 205 227 228 220 217 229 236 241 227 222 242 256
285 282 294 291 302 301 303 302 298 297 301 300 295 291 289 283 286 284 281 273 253 260 245 235 222 221 222 220 220 215 175 221 235 241 233 240 232 238 238 225 219 239 243
320 315 320 308 293 293 307 306 304 303 299 295 296 293 288 284 283 278 275 269 270 263 249 238 222 218 211 206 215 213 193 213 230 233 229 223 239 245 245 236 205 223 237
300 294 290 294 301 300 287 288 294 300 297 293 291 292 290 284 291 282 285 271 263 268 264 245 238 219 207 206 209 210 217 218 225 230 225 220 234 242 249 246 252 261 272
298 291 291 294 297 302 291 288 296 301 298 295 292 295 295 288 284 282 285 281 254 252 261 238 236 221 214 213 209 215 222 233 232 216 224 228 232 242 249 250 260 273 252
298 294 297 295 291 299 299 283 295 302 306 304 303 300 296 296 289 280 275 275 264 253 241 233 234 231 216 212 200 210 227 240 229 224 227 232 235 238 243 254 259 247 228
284 283 283 288 289 295 290 290 300 305 303 304 305 302 298 291 295 290 281 273 262 243 236 228 222 216 226 225 211 200 213 202 216 186 176 211 224 230 229 233 234 241 240
286 289 295 292 294 303 304 300 304 303 304 306 309 305 305 303 302 298 295 284 272 268 243 231 214 226 233 243 224 221 218 223 219 213 202 214 212 222 223 224 231 221 236